Regional Weather Roundup
Issued by NWS Cleveland, OH

Home | Current Version | Previous Version | Graphics & Text | Print | Product List | Glossary On
Versions: 1 2 3 4 5 6 7 8 9 10 11 12 13 14 15 16 17 18 19 20 21 22 23 24 25 26 27 28 29 30 31 32 33 34 35 36 37 38 39 40 41 42 43 44 45 46 47 48 49 50
000
ASUS41 KCLE 210800
RWRCLE
OHIO REGIONAL WEATHER ROUNDUP
NATIONAL WEATHER SERVICE WILMINGTON, OH
400 AM EDT SUN SEP 21 2014

NOTE: "FAIR" INDICATES FEW OR NO CLOUDS BELOW 12,000 FEET WITH NO
SIGNIFICANT WEATHER AND/OR OBSTRUCTIONS TO VISIBILITY.

OHZ001>008-015>018-024>027-034-035-043-044-210900-
   NORTHWEST OHIO

CITY           SKY/WX    TMP DP  RH WIND       PRES   REMARKS
DEFIANCE       CLOUDY   N/A N/A N/A SW12      29.71F
FINDLAY        CLOUDY    69  65  86 SW16G23   29.73F
TOLEDO EXPRESS MOCLDY    64  63  96 S9        29.69F
TOLEDO METCALF CLOUDY    66  63  90 SW9       29.71F
LIMA           LGT RAIN  69  68  96 SW9       29.76F FOG
$$

OHZ009>014-019>023-028>033-038-089-210900-
   NORTHEAST OHIO

CITY           SKY/WX    TMP DP  RH WIND       PRES   REMARKS
CLE-HOPKINS    CLOUDY    69  62  78 S13       29.76F
CLE-LAKEFRONT  CLOUDY    69  61  75 S12       29.73F
CUY CO. ARPT   NOT AVBL
LORAIN-ELYRIA  LGT RAIN  71  64  78 SW15      29.76F
ASHTABULA      CLOUDY    66  62  87 S8        29.77F
AKRON-CANTON   CLOUDY    68  62  81 S12       29.80F
WOOSTER        NOT AVBL
MANSFIELD      CLOUDY    70  65  84 S17G25    29.79F
YOUNGSTOWN     MOCLDY    66  62  87 S6        29.80F
$$

OHZ042-051>053-060>062-070>072-077>081-210900-
  SOUTHWEST OHIO

CITY           SKY/WX    TMP DP  RH WIND       PRES   REMARKS
CINC-COVINGTON MOCLDY    70  64  81 SW8       29.87S
CINC-LUNKEN    PTCLDY    69  65  86 S8        29.86F
HAMILTON       MOCLDY    72  65  78 VRB7      29.85F
DAYTON         NOT AVBL
WRIGHT-PAT AFB CLOUDY    73  64  75 SW15      29.82F
DAYTON GENERAL CLOUDY    73  65  75 SW15      29.84F
WILMINGTON     PTCLDY    67  63  87 SW13      29.85F
$$

OHZ036-037-039>041-045>050-054>059-063>069-073>076-082>088-210900-
  CENTRAL AND SOUTHEAST OHIO

CITY           SKY/WX    TMP DP  RH WIND       PRES   REMARKS
COLUMBUS       MOCLDY    72  63  73 SW9       29.83F
OSU AIRPORT    MOCLDY    71  64  78 SW9       29.82F
BOLTON FIELD   NOT AVBL
RICKENBACK AFB NOT AVBL
NEWARK         CLOUDY    69  63  81 SW7       29.83F
MARION         LGT RAIN  70  64  81 SW15      29.78F
LANCASTER      MOCLDY    70  63  78 SW7       29.84F
ZANESVILLE     PTCLDY    69  62  78 S9        29.84F
NEW PHILLY     PTCLDY    69  63  81 S8        29.83F
$$



USA.gov is the U.S. government's official web portal to all federal, state and local government web resources and services.